Regional Weather Roundup
Issued by NWS

Home | Current Version | Previous Version | Text Only | Print | Product List | Glossary On
Versions: 1 2 3 4 5 6 7 8 9 10 11 12 13 14 15 16 17 18 19 20 21 22 23 24 25 26 27 28 29 30 31 32 33 34 35 36 37 38 39 40 41 42 43 44 45 46 47 48 49 50
000
ASUS42 KFFC 220210
RWRGA
WEATHER ROUNDUP FOR GEORGIA
NATIONAL WEATHER SERVICE PEACHTREE CITY GA
900 PM EST TUE NOV 21 2017

NOTE: "FAIR" INDICATES FEW OR NO CLOUDS BELOW 12,000 FEET WITH NO
SIGNIFICANT WEATHER AND/OR OBSTRUCTIONS TO VISIBILITY.

* = USE WITH CAUTION. THE STATIONS MARKED WITH AN ASTERISK MAY NOT
REPORT WEATHER SUCH AS PRECIPITATION, FOG, OR THUNDER AND ARE NOT
QUALITY CONTROLLED BY NWS.

THE REMARK "TC" DENOTES TEMPERATURE READING IN DEGREES CELSIUS.

GAZ001>058-220300-
NORTH GEORGIA

CITY           SKY/WX    TMP DP  RH WIND       PRES   REMARKS
ATLANTA        PTCLDY    58  54  86 SE6       30.03S
ATHENS         MOCLDY    53  51  93 E5        30.03F
CHAMBLEE       CLEAR     56  51  84 CALM      30.03F
PEACHTREE CITY PTCLDY    54  53  97 CALM      30.03F FOG
ROME           CLEAR     50  49  96 CALM      30.03R
WEST ATLANTA   CLOUDY    55  53  93 CALM      30.03R
GAINESVILLE    CLOUDY    56  51  84 E3        30.06R
CARTERSVILLE   MOCLDY    55  54  96 CALM      30.03S


CITY           SKY/WX    TMP DP  RH WIND       PRES   REMARKS
DALTON*        CLOUDY    50  50 100 CALM      30.05R
LAWRENCEVILLE* CLOUDY    56  51  84 CALM      30.05S
MARIETTA       PTCLDY    58  52  79 E7        30.03R
KENNESAW*      CLOUDY    59  52  77 SE5       30.04R
CANTON*        MOCLDY    59  52  77 CALM      30.05R
$$

GAZ059>098-102>109-220300-
CENTRAL GEORGIA

CITY           SKY/WX    TMP DP  RH WIND       PRES   REMARKS
AUGUSTA-BUSH   CLOUDY    58  57  97 N3        30.02F
AUGUSTA-DANIEL CLOUDY    59  57  93 CALM      30.03F
COLUMBUS       MOCLDY    61  58  90 CALM      30.01S
MACON          PTCLDY    55  54  96 CALM      30.01S
ROBINS AFB     CLEAR     56  54  95 CALM      30.00S


CITY           SKY/WX    TMP DP  RH WIND       PRES   REMARKS
LAGRANGE*      CLOUDY    55  55  98 CALM      30.02S
SYLVANIA*      PTCLDY    61  61 100 NE5       30.02F
MILLEDGEVILLE* PTCLDY    55  55 100 CALM      30.02S
$$

GAZ099>101-110>166-220300-
SOUTH GEORGIA

CITY           SKY/WX    TMP DP  RH WIND       PRES   REMARKS
SAVANNAH       CLOUDY    62  62 100 NW5       30.00S
VALDOSTA       CLOUDY    61  60  97 S3        29.99F
ALMA           LGT RAIN  62  61  96 CALM      30.01S FOG
ST SIMONS      RAIN      65  65 100 NW3       30.01S FOG
FT STEWART     CLOUDY    61  60  95 SE7       29.97F
ALBANY         CLOUDY    61  59  93 CALM      29.97F
HUNTER AFB     CLOUDY    63  61  93 CALM      29.98S
MOODY AFB      MOCLDY    62  62 100 SE5       29.99R
BRUNSWICK      RAIN      63  61  94 CALM      30.03S


CITY           SKY/WX    TMP DP  RH WIND       PRES   REMARKS
BAINBRIDGE*    CLEAR     61  61 100 CALM      29.98F
MOULTRIE*      CLOUDY    61  61 100 CALM      30.00F
VIDALIA*       PTCLDY    61  59  94 CALM      30.02S
WAYCROSS*      LGT RAIN  64  61  90 CALM      30.02S
DOUGLAS*       LGT RAIN  61  61 100 SE3       30.00F
$$



USA.gov is the U.S. government's official web portal to all federal, state and local government web resources and services.